DW2609 Weather Reports


time (UTC)temp
C
wind
direction
speed
KPH
gust
KPH
rain 1hr
cm
rain 24hr
cm
rain mn
cm
humidity
%
barometer
mb
20260906080033 30 340 1.6 4.8 0.00 0.00 0.00 64 1019.5
20260906074526 29 349 0.0 3.2 0.00 0.00 0.00 64 1019.5
20260906073023 28 350 0.0 4.8 0.00 0.00 0.00 64 1019.4
20260906071518 27 350 0.0 6.4 0.00 0.00 0.00 65 1019.3
20260906070014 26 315 0.0 4.8 0.00 0.00 0.00 64 1019.0
20260906064509 25 229 0.0 3.2 0.00 0.00 0.00 65 1018.7
20260906063007 23 229 0.0 0.0 0.00 0.00 0.00 69 1018.9
20260906061601 22 229 0.0 0.0 0.00 0.00 0.00 71 1018.7
20260906060057 22 229 0.0 0.0 0.00 0.00 0.00 73 1018.6
20260906054555 21 229 0.0 0.0 0.00 0.00 0.00 74 1018.8
20260906053051 21 229 0.0 0.0 0.00 0.00 0.00 74 1018.3
20260906051549 21 229 0.0 0.0 0.00 0.00 0.00 73 1018.3
20260906050053 21 229 0.0 0.0 0.00 0.00 0.00 73 1018.3
20260906044545 21 229 0.0 0.0 0.00 0.00 0.00 72 1018.1
20260906043046 21 229 0.0 0.0 0.00 0.00 0.00 73 1018.1
20260906041546 21 229 0.0 0.0 0.00 0.00 0.00 73 1017.8
20260906040040 21 229 0.0 0.0 0.00 0.00 0.00 72 1017.6
20260906034544 21 229 0.0 0.0 0.00 0.00 0.00 72 1017.5
20260906033039 21 229 0.0 0.0 0.00 0.00 0.00 73 1017.3
20260906031547 21 229 0.0 0.0 0.00 0.00 0.00 73 1017.3
20260906030037 21 229 0.0 0.0 0.00 0.00 0.00 74 1017.3
20260906024535 21 229 0.0 1.6 0.00 0.00 0.00 74 1017.3
20260906023034 21 142 0.0 0.0 0.00 0.00 0.00 71 1017.3
20260906021531 21 142 0.0 0.0 0.00 0.00 0.00 70 1016.8
20260906020035 21 142 0.0 0.0 0.00 0.00 0.00 69 1016.8
20260906014530 21 142 0.0 0.0 0.00 0.00 0.00 68 1016.6
20260906013025 21 142 0.0 0.0 0.00 0.00 0.00 66 1016.6
20260906011523 22 142 0.0 0.0 0.00 0.00 0.00 66 1016.5
20260906010021 22 142 0.0 0.0 0.00 0.00 0.00 67 1016.4
20260906004520 22 142 0.0 0.0 0.00 0.00 0.00 66 1016.5
20260906003024 22 142 0.0 0.0 0.00 0.00 0.00 64 1016.4
20260906001516 22 142 0.0 0.0 0.00 0.00 0.00 63 1016.4
20260906000015 22 142 0.0 0.0 0.00 0.00 0.00 62 1016.4
20260905234512 23 142 0.0 0.0 0.00 0.00 0.00 62 1016.4
20260905233011 23 142 0.0 0.0 0.00 0.00 0.00 61 1016.4
20260905231511 23 142 0.0 0.0 0.00 0.00 0.00 62 1016.4
20260905230010 23 142 0.0 0.0 0.00 0.00 0.00 60 1016.3
20260905224506 23 142 0.0 0.0 0.00 0.00 0.00 60 1016.3
20260905223010 23 142 0.0 0.0 0.00 0.00 0.00 59 1016.1
20260905221602 24 142 0.0 0.0 0.00 0.00 0.00 59 1016.1
20260905214555 25 142 0.0 0.0 0.00 0.00 0.00 55 1015.9
20260905213100 25 142 0.0 0.0 0.00 0.00 0.00 55 1015.7
20260905211554 25 142 0.0 0.0 0.00 0.00 0.00 54 1015.7
20260905210107 25 142 0.0 0.0 0.00 0.00 0.00 53 1015.6
20260905204553 26 142 0.0 0.0 0.00 0.00 0.00 52 1015.5
20260905203056 26 142 0.0 0.0 0.00 0.00 0.00 50 1015.7
20260905201557 26 142 0.0 0.0 0.00 0.00 0.00 50 1015.6
20260905200101 27 142 0.0 0.0 0.00 0.00 0.00 49 1015.4
20260905194548 27 142 0.0 0.0 0.00 0.00 0.00 48 1015.4
20260905193047 27 142 0.0 0.0 0.00 0.00 0.00 47 1015.4
20260905191546 28 142 0.0 0.0 0.00 0.00 0.00 47 1015.1
20260905190045 28 142 0.0 6.4 0.00 0.00 0.00 47 1014.9
20260905184543 28 153 3.2 4.8 0.00 0.00 0.00 47 1014.8
20260905183044 28 153 0.0 3.2 0.00 0.00 0.00 46 1014.6
20260905181543 28 153 0.0 3.2 0.00 0.00 0.00 45 1014.5
20260905180045 29 156 1.6 6.4 0.00 0.00 0.00 43 1014.4
20260905174541 30 146 0.0 6.4 0.00 0.00 0.00 42 1014.2
20260905173041 30 146 0.0 11.3 0.00 0.00 0.00 41 1014.0
20260905171556 31 146 0.0 3.2 0.00 0.00 0.00 40 1013.8
20260905170040 31 148 4.8 12.9 0.00 0.00 0.00 41 1013.8
20260905164541 31 132 6.4 16.1 0.00 0.00 0.00 40 1013.8
20260905163039 32 146 3.2 17.7 0.00 0.00 0.00 41 1013.7
20260905161542 32 146 4.8 17.7 0.00 0.00 0.00 42 1013.6
20260905160046 33 139 4.8 9.7 0.00 0.00 0.00 41 1013.5
20260905154550 33 127 3.2 12.9 0.00 0.00 0.00 41 1013.3
20260905153036 34 98 3.2 8.0 0.00 0.00 0.00 38 1013.2
20260905151537 35 116 1.6 8.0 0.00 0.00 0.00 38 1013.1
20260905150035 35 138 1.6 12.9 0.00 0.00 0.00 38 1013.3
20260905144548 36 143 1.6 6.4 0.00 0.00 0.00 37 1013.2
20260905143034 36 124 3.2 8.0 0.00 0.00 0.00 35 1013.2
20260905141532 37 140 3.2 12.9 0.00 0.00 0.00 34 1013.4
20260905140037 38 148 1.6 14.5 0.00 0.00 0.00 34 1013.5
20260905134530 38 143 1.6 11.3 0.00 0.00 0.00 33 1013.7
20260905133029 38 5 0.0 14.5 0.00 0.00 0.00 28 1013.7
20260905131529 38 360 1.6 12.9 0.00 0.00 0.00 27 1013.9
20260905130029 38 11 0.0 12.9 0.00 0.00 0.00 27 1014.0
20260905124537 38 355 1.6 12.9 0.00 0.00 0.00 26 1014.0
20260905123026 39 347 0.0 8.0 0.00 0.00 0.00 26 1014.2
20260905121524 38 5 0.0 8.0 0.00 0.00 0.00 27 1014.1
20260905120027 38 349 3.2 8.0 0.00 0.00 0.00 28 1014.3
20260905114524 38 351 1.6 8.0 0.00 0.00 0.00 28 1014.4
20260905113022 38 350 1.6 8.0 0.00 0.00 0.00 29 1014.6
20260905111522 38 343 0.0 3.2 0.00 0.00 0.00 28 1014.5
20260905110019 38 349 0.0 4.8 0.00 0.00 0.00 29 1014.6
20260905104524 37 348 1.6 11.3 0.00 0.00 0.00 30 1014.5
20260905103013 37 346 0.0 11.3 0.00 0.00 0.00 30 1014.7
20260905101511 37 14 1.6 14.5 0.00 0.00 0.00 30 1014.8
20260905100008 36 340 1.6 11.3 0.00 0.00 0.00 31 1014.9
20260905094503 36 355 0.0 9.7 0.00 0.00 0.00 32 1014.9
20260905093100 35 9 0.0 6.4 0.00 0.00 0.00 32 1014.9
20260905091607 35 336 1.6 6.4 0.00 0.00 0.00 35 1014.8
20260905090055 35 341 1.6 8.0 0.00 0.00 0.00 33 1014.8
20260905084552 35 355 0.0 6.4 0.00 0.00 0.00 35 1014.7
20260905083047 33 302 0.0 3.2 0.00 0.00 0.00 37 1014.5
20260905081553 33 263 0.0 3.2 0.00 0.00 0.00 38 1014.4